When you browse on this site, cookies collect data to enhance your experience and personalize the content and advertising you see.
Visit our Privacy Policy to learn more. By continuing to use the site, you agree to this use of cookies and data.
  • In Belgium
  • List of Countries
  • For 7 days
  • Water Temperature
  • Satellite Maps
  • Weather Map
  • Weather Widgets
  • user-avatar
    Login

    Hourly Weather Gaborone

    Today, 27 May, Monday

    Time Temperature Precipitation Wind Pressure Humidity
    00:00 +16°C° 0 mm 1 mps 680 mmHg 41%
    01:00 +16°C° 0 mm 1 mps 680 mmHg 42%
    02:00 +15°C° 0 mm 1 mps 680 mmHg 43%
    03:00 +15°C° 0 mm 1 mps 680 mmHg 45%
    04:00 +15°C° 0 mm 1 mps 680 mmHg 46%
    05:00 +13°C° 0 mm 0 mps 680 mmHg 47%
    06:00 +13°C° 0 mm 0 mps 680 mmHg 46%
    07:00 +15°C° 0 mm 1 mps 680 mmHg 45%
    08:00 +15°C° 0 mm 1 mps 681 mmHg 45%
    09:00 +19°C° 0 mm 1 mps 681 mmHg 39%
    10:00 +21°C° 0 mm 1 mps 682 mmHg 34%
    11:00 +23°C° 0 mm 1 mps 682 mmHg 28%
    12:00 +24°C° 0 mm 1 mps 682 mmHg 26%
    13:00 +25°C° 0 mm 1 mps 681 mmHg 23%
    14:00 +26°C° 0 mm 1 mps 681 mmHg 21%
    15:00 +26°C° 0 mm 1 mps 680 mmHg 21%
    16:00 +25°C° 0 mm 1 mps 680 mmHg 22%
    17:00 +24°C° 0 mm 1 mps 680 mmHg 22%
    18:00 +23°C° 0 mm 1 mps 680 mmHg 24%
    19:00 +22°C° 0 mm 1 mps 679 mmHg 26%
    20:00 +19°C° 0 mm 0 mps 679 mmHg 27%
    21:00 +18°C° 0 mm 0 mps 679 mmHg 28%
    22:00 +18°C° 0 mm 0 mps 679 mmHg 29%
    23:00 +17°C° 0 mm 0 mps 680 mmHg 30%

    Tomorrow, 28 May, Tuesday

    Time Temperature Precipitation Wind Pressure Humidity
    00:00 +17°C° 0 mm 0 mps 679 mmHg 31%
    01:00 +16°C° 0 mm 0 mps 679 mmHg 33%
    02:00 +15°C° 0 mm 0 mps 679 mmHg 34%
    03:00 +15°C° 0 mm 0 mps 679 mmHg 36%
    04:00 +14°C° 0 mm 0 mps 679 mmHg 37%
    05:00 +14°C° 0 mm 0 mps 679 mmHg 39%
    06:00 +15°C° 0 mm 1 mps 679 mmHg 39%
    07:00 +15°C° 0 mm 1 mps 680 mmHg 39%
    08:00 +16°C° 0 mm 1 mps 680 mmHg 40%
    09:00 +19°C° 0 mm 1 mps 681 mmHg 36%
    10:00 +21°C° 0 mm 1 mps 681 mmHg 32%
    11:00 +23°C° 0 mm 2 mps 682 mmHg 28%
    12:00 +24°C° 0 mm 2 mps 681 mmHg 26%
    13:00 +25°C° 0 mm 1 mps 680 mmHg 24%
    14:00 +26°C° 0 mm 1 mps 680 mmHg 21%
    15:00 +26°C° 0 mm 1 mps 679 mmHg 22%
    16:00 +25°C° 0 mm 1 mps 679 mmHg 23%
    17:00 +22°C° 0 mm 0 mps 679 mmHg 24%
    18:00 +21°C° 0 mm 0 mps 679 mmHg 25%
    19:00 +19°C° 0 mm 0 mps 679 mmHg 27%
    20:00 +18°C° 0 mm 0 mps 679 mmHg 29%
    21:00 +17°C° 0 mm 0 mps 679 mmHg 30%
    22:00 +17°C° 0 mm 0 mps 679 mmHg 31%
    23:00 +16°C° 0 mm 0 mps 680 mmHg 32%

    Day after tomorrow, 29 May, Wednesday

    Time Temperature Precipitation Wind Pressure Humidity
    00:00 +16°C° 0 mm 0 mps 679 mmHg 33%
    01:00 +15°C° 0 mm 0 mps 679 mmHg 35%
    02:00 +15°C° 0 mm 0 mps 679 mmHg 36%
    03:00 +14°C° 0 mm 0 mps 679 mmHg 37%
    04:00 +14°C° 0 mm 0 mps 679 mmHg 38%
    05:00 +13°C° 0 mm 0 mps 679 mmHg 39%
    06:00 +14°C° 0 mm 0 mps 679 mmHg 39%
    07:00 +15°C° 0 mm 1 mps 680 mmHg 38%
    08:00 +16°C° 0 mm 1 mps 680 mmHg 38%
    09:00 +19°C° 0 mm 1 mps 681 mmHg 34%
    10:00 +21°C° 0 mm 1 mps 681 mmHg 29%
    11:00 +24°C° 0 mm 2 mps 682 mmHg 25%
    12:00 +25°C° 0 mm 1 mps 681 mmHg 23%
    13:00 +26°C° 0 mm 1 mps 681 mmHg 21%
    14:00 +27°C° 0 mm 1 mps 680 mmHg 19%
    15:00 +26°C° 0 mm 1 mps 680 mmHg 20%
    16:00 +25°C° 0 mm 1 mps 680 mmHg 20%
    17:00 +25°C° 0 mm 1 mps 679 mmHg 21%
    18:00 +23°C° 0 mm 1 mps 679 mmHg 23%
    19:00 +20°C° 0 mm 0 mps 679 mmHg 25%
    20:00 +18°C° 0 mm 0 mps 679 mmHg 27%
    21:00 +18°C° 0 mm 0 mps 680 mmHg 28%
    22:00 +17°C° 0 mm 0 mps 680 mmHg 29%
    23:00 +16°C° 0 mm 0 mps 680 mmHg 30%

    30 May, Thursday

    Time Temperature Precipitation Wind Pressure Humidity
    00:00 +16°C° 0 mm 0 mps 680 mmHg 31%
    01:00 +15°C° 0 mm 0 mps 679 mmHg 32%
    02:00 +15°C° 0 mm 0 mps 679 mmHg 34%
    03:00 +14°C° 0 mm 0 mps 679 mmHg 35%
    04:00 +14°C° 0 mm 0 mps 679 mmHg 36%
    05:00 +13°C° 0 mm 0 mps 679 mmHg 37%
    06:00 +14°C° 0 mm 1 mps 679 mmHg 37%
    07:00 +15°C° 0 mm 1 mps 680 mmHg 38%
    08:00 +15°C° 0 mm 1 mps 680 mmHg 39%
    09:00 +17°C° 0 mm 2 mps 681 mmHg 37%
    10:00 +19°C° 0 mm 3 mps 681 mmHg 35%
    11:00 +21°C° 0 mm 3 mps 681 mmHg 33%
    12:00 +22°C° 0 mm 3 mps 681 mmHg 30%
    13:00 +24°C° 0 mm 2 mps 680 mmHg 27%
    14:00 +25°C° 0 mm 2 mps 680 mmHg 24%
    15:00 +25°C° 0 mm 2 mps 679 mmHg 24%
    16:00 +24°C° 0 mm 1 mps 679 mmHg 25%
    17:00 +24°C° 0 mm 1 mps 679 mmHg 26%
    18:00 +22°C° 0 mm 1 mps 679 mmHg 28%
    19:00 +21°C° 0 mm 1 mps 679 mmHg 31%
    20:00 +18°C° 0 mm 0 mps 679 mmHg 33%
    21:00 +19°C° 0 mm 1 mps 679 mmHg 35%
    22:00 +18°C° 0 mm 1 mps 679 mmHg 37%
    23:00 +18°C° 0 mm 1 mps 679 mmHg 39%

    31 May, Friday

    Time Temperature Precipitation Wind Pressure Humidity
    00:00 +16°C° 0 mm 1 mps 679 mmHg 41%
    01:00 +16°C° 0 mm 1 mps 678 mmHg 44%
    02:00 +15°C° 0 mm 1 mps 678 mmHg 46%
    03:00 +14°C° 0 mm 0 mps 678 mmHg 49%
    04:00 +13°C° 0 mm 0 mps 678 mmHg 52%
    05:00 +13°C° 0 mm 0 mps 677 mmHg 54%
    06:00 +13°C° 0 mm 0 mps 678 mmHg 54%
    07:00 +14°C° 0 mm 0 mps 678 mmHg 53%
    08:00 +14°C° 0 mm 0 mps 679 mmHg 52%
    09:00 +19°C° 0 mm 1 mps 679 mmHg 46%
    10:00 +21°C° 0 mm 1 mps 680 mmHg 40%
    11:00 +23°C° 0 mm 2 mps 680 mmHg 34%
    12:00 +24°C° 0 mm 1 mps 679 mmHg 30%
    13:00 +26°C° 0 mm 1 mps 679 mmHg 26%
    14:00 +27°C° 0 mm 1 mps 678 mmHg 22%
    15:00 +26°C° 0 mm 1 mps 678 mmHg 23%
    16:00 +24°C° 0 mm 0 mps 678 mmHg 24%
    17:00 +23°C° 0 mm 0 mps 677 mmHg 24%
    18:00 +23°C° 0 mm 1 mps 677 mmHg 26%
    19:00 +22°C° 0 mm 1 mps 677 mmHg 28%
    20:00 +21°C° 0 mm 1 mps 677 mmHg 30%
    21:00 +20°C° 0 mm 1 mps 677 mmHg 31%
    22:00 +19°C° 0 mm 1 mps 677 mmHg 32%
    23:00 +19°C° 0 mm 1 mps 677 mmHg 33%

    1 June, Saturday

    Time Temperature Precipitation Wind Pressure Humidity
    00:00 +19°C° 0 mm 1 mps 677 mmHg 33%
    01:00 +19°C° 0 mm 1 mps 677 mmHg 34%
    02:00 +16°C° 0 mm 0 mps 677 mmHg 34%
    03:00 +18°C° 0 mm 1 mps 677 mmHg 34%
    04:00 +19°C° 0 mm 1 mps 677 mmHg 34%
    05:00 +19°C° 0 mm 1 mps 678 mmHg 34%
    06:00 +19°C° 0 mm 1 mps 678 mmHg 34%
    07:00 +19°C° 0 mm 1 mps 679 mmHg 34%
    08:00 +19°C° 0 mm 1 mps 679 mmHg 34%
    09:00 +21°C° 0 mm 1 mps 679 mmHg 30%
    10:00 +23°C° 0 mm 1 mps 680 mmHg 27%
    11:00 +25°C° 0 mm 2 mps 680 mmHg 23%
    12:00 +26°C° 0 mm 2 mps 679 mmHg 22%
    13:00 +27°C° 0 mm 2 mps 679 mmHg 20%
    14:00 +28°C° 0 mm 3 mps 679 mmHg 18%
    15:00 +27°C° 0 mm 2 mps 678 mmHg 19%
    16:00 +27°C° 0 mm 2 mps 678 mmHg 19%
    17:00 +27°C° 0 mm 2 mps 678 mmHg 19%
    18:00 +25°C° 0 mm 2 mps 679 mmHg 21%
    19:00 +23°C° 0 mm 2 mps 679 mmHg 23%
    20:00 +21°C° 0 mm 2 mps 679 mmHg 25%
    21:00 +20°C° 0 mm 2 mps 679 mmHg 26%
    22:00 +20°C° 0 mm 1 mps 679 mmHg 27%
    23:00 +19°C° 0 mm 1 mps 679 mmHg 28%
    Show more